Regional Weather Roundup
Issued by NWS Newport/Morehead, NC

Current Version | Previous Version | Graphics & Text | Print | Product List | Glossary Off
Versions: 1 2 3 4 5 6 7 8 9 10 11 12 13 14 15 16 17 18 19 20 21 22 23 24 25 26 27 28 29 30 31 32 33 34 35 36 37 38 39 40 41 42 43 44 45 46 47 48 49 50

000
ASUS42 KMHX 250913
RWRMHX
WEATHER ROUNDUP FOR EASTERN NORTH CAROLINA
NATIONAL WEATHER SERVICE NEWPORT/MOREHEAD CITY NC
500 AM EDT SUN SEP 25 2016

NOTE: "FAIR" INDICATES FEW OR NO CLOUDS BELOW 12,000 FEET
WITH NO SIGNIFICANT WEATHER AND/OR OBSTRUCTIONS TO VISIBILITY

NCZ015>017-031-032-045>047-102-103-251000-
NORTH COAST

CITY           SKY/WX    TMP DP  RH WIND       PRES   REMARKS
EDENTON        CLOUDY    72  72 100 N3        30.11R
ELIZABETH CITY CLOUDY    71  65  81 N9        30.10R
KITTY HAWK     NOT AVBL
MANTEO         CLOUDY    72  66  82 NE10      30.08S

$$

NCZ045>047-081-094-103-104-251000-
CENTRAL COAST

CITY           SKY/WX    TMP DP  RH WIND       PRES   REMARKS
FRISCO         CLOUDY    74  68  81 NE8       30.06R

$$

NCZ095-097-098-100-101-251000-
SOUTHERN COAST

CITY           SKY/WX    TMP DP  RH WIND       PRES   REMARKS
BEAUFORT       MOCLDY    74  71  91 N7        30.06S
CEDAR ISLAND   NOT AVBL
JACKSONVILLE   PTCLDY    73  70  90 NE6       30.06S
PINEY ISLAND   CLOUDY   N/A N/A N/A NE10      30.06S
WILMINGTON     PTCLDY    70  69  97 NE8       30.05S


$$

NCZ011>013-027>030-043-044-078>080-089-090>093-098-251000-
COASTAL PLAIN

CITY           SKY/WX    TMP DP  RH WIND       PRES   REMARKS
AHOSKIE        NOT AVBL
CLINTON        CLOUDY    71  71 100 CALM      30.08S FOG
ELIZABETHTOWN  CLOUDY    70  70 100 CALM      30.06R FOG
GOLDSBORO      PTCLDY    73  73 100 NE9       30.07S
GREENVILLE     CLOUDY    72  70  94 NE5       30.11S
HAVELOCK       CLOUDY    74  68  81 NE9       30.08R
KENANSVILLE    CLOUDY    70  70 100 CALM      30.09R FOG
KINSTON        MOCLDY    73  70  91 NE6       30.09S
NEW BERN       CLOUDY    73  69  87 NE7       30.09R
RICHLANDS      CLOUDY    70  70 100 NE6       30.08R FOG
ROCKY MOUNT    CLOUDY    71  69  93 NE7       30.10S
WASHINGTON     CLOUDY    71  67  89 NE5       30.10R
WHITEVILLE     NOT AVBL

$$

AMZ130-135-150-152-154-156-158-170-250-252-270-ANZ085-086-088-633-658-670-251000-
MARINE OBSERVATIONS

STATION/POSITION TIME  TEMP    WIND        PRES    WAVE   SWELL
                       AIR SEA DIR/SP/G            HT/PER HT/PER
                 (UTC) (F)     (DEG/KT/KT) (MB)    (FT/S) (FT/S)
CHESAPEAKE LIGHT NOT AVBL
64 E VA BEACH    0850   71 74   20/ 16/ 19 1018.2    7/10   5/10
DUCK             0848   72 78   40/ 17/ 19 1018.2
2 E DUCK         0841      77                N/A     5/10   2/11
OREGON INLET     0848   72 78   30/ 13/ 18 1018.1
13E OREGON INLT  0900      77                N/A     5/11   3/11
HATTERAS CG      0842   74 81   40/  9/ 11 1017.5
DIAMOND BUOY     0850   76 85   30/ 14/ 17 1017.0    6/10   5/10
CAPE LOOKOUT     0900   77      50/ 14/ 16 1017.5
BEAUFORT LAB     0842   75 80   20/  5/  6 1017.3
30 SE NEW RVR IN 0808   79 82   70/ 14/ 19 1017.0
30 SE NEW RVR IN 0855      82                N/A     4/11   2/11
27 SE WRIGHTSVLE 0808   80 81   50/ 12/ 16 1016.9
5 SE WRIGHTSVLE  0808   80 81   70/ 10/ 12 1018.0
225 S CAPE HAT   0850   81 84   40/  4/  6 1015.2    4/11   3/11
41 SE CHARLESTON 0850   80 82   50/ 10/ 12 1015.7    4/11   3/11

$$



USA.gov is the U.S. government's official web portal to all federal, state and local government web resources and services.